TimeEST,TemperatureF,Dew PointF,Humidity,Sea Level PressureIn,VisibilityMPH,Wind Direction,Wind SpeedMPH,Gust SpeedMPH,PrecipitationIn,Events,Conditions,WindDirDegrees,DateUTC
12:17 AM,18.3,14.9,86,29.95,7.0,SW,5.8,-,N/A,Snow,Light Snow,230,2013-01-03 05:17:00
12:37 AM,18.3,14.9,86,29.95,10.0,WSW,3.5,-,N/A,,Overcast,250,2013-01-03 05:37:00
12:56 AM,18.0,14.5,86,29.94,10.0,Calm,Calm,-,N/A,,Overcast,0,2013-01-03 05:56:00
1:17 AM,17.6,14.4,87,29.94,10.0,Calm,Calm,-,N/A,,Overcast,0,2013-01-03 06:17:00
1:37 AM,17.2,14.4,88,29.93,10.0,Calm,Calm,-,N/A,Snow,Light Snow,0,2013-01-03 06:37:00
1:57 AM,17.1,14.4,89,29.92,10.0,Calm,Calm,-,N/A,,Overcast,0,2013-01-03 06:57:00
2:17 AM,17.2,14.5,89,29.91,10.0,South,4.6,-,N/A,,Overcast,190,2013-01-03 07:17:00
2:37 AM,16.0,13.6,90,29.91,10.0,Calm,Calm,-,N/A,,Overcast,0,2013-01-03 07:37:00
2:57 AM,15.8,13.6,91,29.91,7.0,Calm,Calm,-,N/A,,Overcast,0,2013-01-03 07:57:00
3:17 AM,14.9,13.1,93,29.91,7.0,Calm,Calm,-,N/A,,Overcast,0,2013-01-03 08:17:00
3:37 AM,14.7,12.9,93,29.91,7.0,Calm,Calm,-,N/A,,Overcast,0,2013-01-03 08:37:00
3:57 AM,15.1,13.1,92,29.91,7.0,Calm,Calm,-,N/A,,Overcast,0,2013-01-03 08:57:00
4:17 AM,15.8,13.6,91,29.91,10.0,Calm,Calm,-,N/A,,Overcast,0,2013-01-03 09:17:00
4:36 AM,16.3,14.0,90,29.90,10.0,West,4.6,-,N/A,,Overcast,270,2013-01-03 09:36:00
4:57 AM,16.7,14.0,89,29.90,10.0,West,4.6,-,N/A,,Overcast,260,2013-01-03 09:57:00
5:17 AM,17.1,14.0,88,29.90,10.0,West,4.6,-,N/A,,Overcast,270,2013-01-03 10:17:00
5:36 AM,17.6,14.5,88,29.90,10.0,West,5.8,-,N/A,,Overcast,280,2013-01-03 10:36:00
5:57 AM,18.3,14.9,86,29.90,10.0,West,5.8,-,N/A,,Overcast,260,2013-01-03 10:57:00
6:50 AM,19.4,15.8,86,29.91,10.0,West,6.9,-,N/A,,Overcast,280,2013-01-03 11:50:00
7:50 AM,21.2,17.6,86,29.91,7.0,West,3.5,-,N/A,Snow,Light Snow,280,2013-01-03 12:50:00
8:50 AM,21.2,17.6,86,29.92,7.0,WNW,4.6,-,N/A,Snow,Light Snow,300,2013-01-03 13:50:00
9:45 AM,21.2,19.4,93,29.94,5.0,WNW,3.5,-,N/A,Snow,Light Snow,290,2013-01-03 14:45:00
10:50 AM,23.0,19.4,86,29.96,10.0,NW,8.1,-,N/A,Snow,Light Snow,320,2013-01-03 15:50:00
11:50 AM,23.0,17.6,80,29.97,10.0,NW,13.8,20.7,N/A,Snow,Light Snow,320,2013-01-03 16:50:00
12:50 PM,24.8,17.6,74,29.96,10.0,NW,11.5,17.3,N/A,,Overcast,320,2013-01-03 17:50:00
1:50 PM,23.0,14.0,68,29.95,10.0,NW,10.4,-,N/A,,Mostly Cloudy,320,2013-01-03 18:50:00
2:50 PM,23.0,15.8,74,29.95,10.0,WNW,10.4,-,N/A,,Mostly Cloudy,300,2013-01-03 19:50:00
3:50 PM,24.8,14.0,64,29.95,10.0,WNW,8.1,-,N/A,,Scattered Clouds,300,2013-01-03 20:50:00
4:50 PM,23.0,14.0,68,29.95,10.0,West,10.4,-,N/A,,Clear,260,2013-01-03 21:50:00
5:50 PM,21.2,14.0,74,29.97,10.0,WSW,6.9,-,N/A,,Clear,250,2013-01-03 22:50:00
6:50 PM,19.4,12.2,74,29.94,10.0,SW,9.2,-,N/A,,Clear,220,2013-01-03 23:50:00
7:50 PM,19.4,14.0,80,29.92,10.0,SW,18.4,25.3,N/A,,Clear,230,2013-01-04 00:50:00
8:50 PM,19.4,14.0,80,29.88,10.0,SW,17.3,25.3,N/A,,Mostly Cloudy,220,2013-01-04 01:50:00
10:17 PM,19.4,13.5,78,29.82,10.0,SW,19.6,25.3,N/A,,Clear,230,2013-01-04 03:17:00
10:37 PM,19.8,13.1,75,29.81,10.0,SW,18.4,-,N/A,,Clear,230,2013-01-04 03:37:00
10:57 PM,19.9,13.1,75,29.80,10.0,WSW,20.7,25.3,N/A,,Clear,240,2013-01-04 03:57:00
11:17 PM,19.9,13.1,75,29.79,10.0,WSW,21.9,26.5,N/A,,Scattered Clouds,240,2013-01-04 04:17:00
11:36 PM,20.3,12.9,73,29.77,10.0,WSW,20.7,26.5,N/A,,Mostly Cloudy,240,2013-01-04 04:36:00
11:57 PM,20.3,13.1,74,29.75,10.0,SW,23.0,27.6,N/A,,Scattered Clouds,230,2013-01-04 04:57:00